Regional Weather Roundup
Issued by NWS

Home | Current Version | Previous Version | Graphics & Text | Print | Product List | Glossary On
Versions: 1 2 3 4 5 6 7 8 9 10 11 12 13 14 15 16 17 18 19 20 21 22 23 24 25 26 27 28 29 30 31 32 33 34 35 36 37 38 39 40 41 42 43 44 45 46 47 48 49 50
000
ASUS43 KTOP 170959
RWRKS

WEATHER ROUNDUP FOR KANSAS
NATIONAL WEATHER SERVICE GOODLAND KS
400 AM CST SUN DEC 17 2017

NOTE:  "FAIR" INDICATES FEW OR NO CLOUDS BELOW 12,000 FEET WITH NO
SIGNIFICANT WEATHER AND/OR OBSTRUCTIONS TO VISIBILITY.

KSZ001>006-013>018-027>032-041>047-171100-
NORTHWEST KANSAS

CITY           SKY/WX    TMP DP  RH WIND       PRES   REMARKS
GOODLAND       CLOUDY    33  30  88 N13       29.94R WCI  24
HAYS           PTCLDY    33  23  66 NW9       29.89R
HILL CITY      CLOUDY    33  31  92 N15       29.93R WCI  23
RUSSELL        CLOUDY    41  29  62 SE5       29.88R
$$

KSZ061>065-074>080-084>089-171100-
SOUTHWEST KANSAS

CITY           SKY/WX    TMP DP  RH WIND       PRES   REMARKS
DODGE CITY     CLEAR     35  30  82 S10       29.87R WCI  27
GARDEN CITY    CLOUDY    27  19  72 N10       29.88R WCI  17
GREAT BEND     CLOUDY    41  34  76 SE5       29.89R
LIBERAL        CLOUDY    24  20  84 CALM      29.87R
$$

KSZ066>073-081>083-090>101-171100-
SOUTHEAST KANSAS

CITY           SKY/WX    TMP DP  RH WIND       PRES   REMARKS
CHANUTE        LGT RAIN  43  42  97 S10       29.99S FOG
COFFEYVILLE    LGT RAIN  43  43 100 S7        29.99F FOG
HUTCHINSON     CLOUDY    41  39  93 S8        29.90F
MEDICINE LODGE   N/A     40  38  93 S8        29.92R
NEWTON         CLOUDY    41  40  96 S10       29.91F
PARSONS        RAIN      43  43 100 S6        30.00S FOG
WICHITA INTL   CLOUDY    43  42  97 S9        29.91F
WICHITA JABRA  CLOUDY    42  42 100 S7        29.92F
WICHITA MCCONL CLOUDY    42  41  94 S10       29.92F
WINFIELD       CLOUDY    44  43  96 S10       29.96S
$$

KSZ007>012-019>026-033>040-048>060-102>105-171100-
NORTHEAST KANSAS

CITY           SKY/WX    TMP DP  RH WIND       PRES   REMARKS
CONCORDIA      CLOUDY    38  28  67 CALM      29.92R
EMPORIA        LGT RAIN  42  41  96 S6        29.95F
LAWRENCE       LGT RAIN  44  39  82 S7        29.97S
MANHATTAN      LGT RAIN  44  41  89 SW5       29.95R
OLATHE IND     LGT RAIN  43  41  93 S9        29.98F
OLATHE EXE     LGT RAIN  42  40  92 SW9       29.97F
SALINA         LGT RAIN  44  42  93 S10       29.92S
TOPEKA BILLARD LGT RAIN  44  42  93 S5        29.96F
TOPEKA FORBES  LGT RAIN  45  43  93 S7        29.95F FOG
$$



USA.gov is the U.S. government's official web portal to all federal, state and local government web resources and services.